Location: ????????
(55.3155°N, 39.2900°E)
Time: 03:26:33
(UTC+00:00)

NOSS 2-2 (E) - Visible Passes

Search period start: 25 July 2024 00:00
Search period end: 04 August 2024 00:00
Orbit: 402 x 1749 km, 63.3° (Epoch: 24 July)

Date Brightness Start Highest point End Pass type
(mag) Time Alt. Az. Time Alt. Az. Time Alt. Az.
25 Jul 5.5 19:18:53 10° WNW 19:21:35 23° N 19:24:37 10° NE visible
25 Jul 5.2 21:09:11 10° NW 21:12:22 31° NNE 21:16:24 10° E visible
25 Jul 3.5 22:58:42 10° NW 23:02:36 82° SW 23:07:56 10° SE visible
26 Jul 5.2 18:24:58 10° W 18:27:46 28° NNW 18:30:52 10° NE visible
26 Jul 5.5 20:15:41 10° NW 20:18:36 25° NNE 20:22:05 10° ENE visible
26 Jul 4.0 22:05:20 10° NW 22:09:03 62° NE 22:14:03 10° ESE visible
26 Jul 4.5 23:55:09 10° WNW 23:58:55 32° SW 00:03:54 10° S visible
27 Jul 5.5 19:22:02 10° NW 19:24:44 23° N 19:27:53 10° ENE visible
27 Jul 4.7 21:11:58 10° NW 21:15:25 41° NNE 21:19:54 10° E visible
27 Jul 3.8 23:01:32 10° WNW 23:05:27 54° SW 23:10:49 10° SSE visible
28 Jul 5.4 18:28:10 10° WNW 18:30:51 24° N 18:33:55 10° NE visible
28 Jul 5.1 20:18:32 10° NW 20:21:41 30° NNE 20:25:34 10° E visible
28 Jul 3.5 22:08:04 10° NW 22:11:56 90° S 22:17:14 10° SE visible
28 Jul 5.1 23:58:19 10° WNW 00:01:41 21° SW 00:05:52 10° S visible
29 Jul 5.4 19:24:58 10° NW 19:27:50 24° N 19:31:14 10° ENE visible
29 Jul 4.1 21:14:40 10° NW 21:18:20 57° NNE 21:23:14 10° ESE visible
29 Jul 4.4 23:04:24 10° WNW 23:08:14 35° SW 23:13:19 10° SSE visible
30 Jul 5.4 18:31:14 10° NW 18:33:55 23° N 18:37:02 10° NE visible
30 Jul 4.7 20:21:14 10° NW 20:24:38 38° NNE 20:28:59 10° E visible
30 Jul 3.7 22:10:48 10° NW 22:14:42 60° SW 22:19:24 13° SSE visible
31 Jul 5.6 00:01:58 10° W 00:04:18 14° WSW 00:06:02 12° SW visible
31 Jul 5.1 19:27:45 10° NW 19:30:50 28° NNE 19:34:36 10° ENE visible
31 Jul 3.6 21:17:18 10° NW 21:21:08 83° NE 21:25:56 12° SE visible
31 Jul 5.0 23:07:25 10° WNW 23:10:54 24° SW 23:12:36 20° SSW visible
01 Aug 5.3 18:34:07 10° NW 18:36:56 24° N 18:40:15 10° ENE visible
01 Aug 4.1 20:23:51 10° NW 20:27:28 52° NNE 20:32:17 10° ESE visible
01 Aug 4.2 22:13:32 10° WNW 22:17:23 39° SW 22:19:31 27° S visible
02 Aug 4.7 19:30:23 10° NW 19:33:42 35° NNE 19:37:57 10° E visible
02 Aug 3.6 21:19:55 10° NW 21:23:49 67° SW 21:26:38 26° SSE visible
02 Aug 5.6 23:10:46 10° W 23:13:21 15° WSW 23:13:21 15° WSW visible
03 Aug 5.1 18:36:49 10° NW 18:39:50 27° NNE 18:43:31 10° ENE visible
03 Aug 3.6 20:26:24 10° NW 20:30:11 75° NE 20:33:53 18° ESE visible
03 Aug 4.9 22:16:23 10° WNW 22:19:59 26° SW 22:20:37 25° SW visible
